User: anonymous   Login
Location: Unspecified
(0.0000°N, 0.0000°E)
Time: 05:58:39
(UTC+00:00)
Language:

COSMOS 2409 - Orbit

View from above orbital plane
View from above orbital plane
View from above satellite
View from above satellite

Ground track
Ground track

The orbit data is extracted from the following two-line orbital elements,

1 28380U 04028A   17344.46691576 +.00000065 +00000-0 +51454-4 0  9992
2 28380 082.9620 217.8331 0038523 312.6080 047.1829 13.76048177672242
Epoch (UTC): 10 December 2017 11:12:21
Eccentricity: 0.0038523
inclination: 82.9620°
perigee height: 949 km
apogee height: 1006 km
right ascension of ascending node: 217.8331°
argument of perigee: 312.6080°
revolutions per day: 13.76048177
mean anomaly at epoch: 47.1829°
orbit number at epoch: 67224

The dashed part of the orbit path shows where the satellite is in the earth's shadow,  

DLR